Greenwood, SC

8:01 PM EDT on September 24, 2016 (GMT -0400)
Greenwood County

Weather History for KGRD - September, 2012

Change the Weather History Date:

Saturday, September 22, 2012

  Actual Average (KAND) Record (KAND)
Temperature  
Mean Temperature 75 °F -  
Max Temperature 86 °F 80 °F 95 °F (1955)
Min Temperature 64 °F 60 °F 33 °F (1996)
Cooling Degree Days 10    
Growing Degree Days 25 (Base 50)    
Moisture  
Dew Point 63 °F    
Average Humidity 70    
Maximum Humidity 93    
Minimum Humidity 43    
Precipitation  
Precipitation 0.00 in - - ()
Sea Level Pressure  
Sea Level Pressure 30.00 in    
Wind  
Wind Speed 7 mph (SW)    
Max Wind Speed 15 mph    
Max Gust Speed 20 mph    
Visibility 10 miles    
Events      
Averages and records for this station are not official NWS values.
T = Trace of Precipitation, MM = Missing Value Source: NWS Daily Summary

Daily Weather History Graph

Daily Weather History Graph

Search for Another Location

Airport or City:

Trip Planner

Search our weather history database for the weather conditions in past years. The results will help you decide how hot, cold, wet, or windy it might be!

Date:

Astronomy

Sep. 22, 2012 Rise Set
Actual Time 7:17 AM EDT 7:24 PM EDT
Civil Twilight 6:52 AM EDT 7:49 PM EDT
Nautical Twilight 6:22 AM EDT 8:18 PM EDT
Astronomical Twilight 5:53 AM EDT 8:48 PM EDT
Moon 2:18 PM EDT (9/22) No Moon Set
Length of Visible Light 12h 57m
Length of Day
12h 07m
Waxing Crescent, 48% of the Moon is Illuminated
Sep 22
Waxing Crescent
Sep 22
First Quarter
Sep 29
Full
Oct 8
Last Quarter
Oct 15
New

Hourly Weather History & Observations

Time (EDT) Temp. Heat Index Dew Point Humidity Pressure Visibility Wind Dir Wind Speed Gust Speed Precip Events Conditions
12:56 AM 66.9 °F - 63.0 °F 87% 30.02 in 10.0 mi SSW 5.8 mph - N/A   Clear
1:56 AM 66.0 °F - 63.0 °F 90% 30.02 in 9.0 mi SSW 4.6 mph - N/A   Clear
2:56 AM 66.0 °F - 63.0 °F 90% 30.02 in 8.0 mi South 4.6 mph - N/A   Clear
3:56 AM 66.9 °F - 63.0 °F 87% 30.02 in 10.0 mi SSW 6.9 mph - N/A   Clear
4:56 AM 66.0 °F - 63.0 °F 90% 30.02 in 9.0 mi SSW 6.9 mph - N/A   Clear
5:56 AM 64.9 °F - 63.0 °F 93% 30.03 in 8.0 mi SSW 5.8 mph - N/A   Clear
6:56 AM 64.9 °F - 63.0 °F 93% 30.03 in 8.0 mi SSW 5.8 mph - N/A   Partly Cloudy
7:56 AM 66.0 °F - 64.0 °F 93% 30.04 in 7.0 mi SW 6.9 mph - N/A   Clear
8:56 AM 70.0 °F - 64.9 °F 84% 30.05 in 10.0 mi SW 9.2 mph - N/A   Clear
9:56 AM 73.9 °F - 64.9 °F 73% 30.04 in 10.0 mi SSW 9.2 mph - N/A   Clear
10:56 AM 78.1 °F - 64.0 °F 62% 30.03 in 10.0 mi WSW 10.4 mph - N/A   Clear
11:56 AM 80.1 °F 81.5 °F 63.0 °F 56% 30.03 in 10.0 mi WSW 11.5 mph 19.6 mph N/A   Clear
12:56 PM 82.0 °F 83.1 °F 63.0 °F 52% 30.01 in 10.0 mi West 9.2 mph - N/A   Clear
1:56 PM 84.0 °F 84.5 °F 62.1 °F 47% 29.99 in 10.0 mi SW 15.0 mph 19.6 mph N/A   Clear
3:56 PM 86.0 °F 86.1 °F 61.0 °F 43% 29.95 in 10.0 mi West 9.2 mph - N/A   Clear
4:56 PM 86.0 °F 86.1 °F 61.0 °F 43% 29.95 in 10.0 mi WSW 12.7 mph 17.3 mph N/A   Clear
5:56 PM 84.0 °F 84.0 °F 60.1 °F 44% 29.95 in 10.0 mi West 9.2 mph - N/A   Clear
6:56 PM 80.1 °F 81.2 °F 62.1 °F 54% 29.96 in 10.0 mi WSW 5.8 mph - N/A   Clear
7:56 PM 77.0 °F - 62.1 °F 60% 29.96 in 10.0 mi Calm Calm - N/A   Clear
8:56 PM 72.0 °F - 63.0 °F 73% 29.98 in 10.0 mi West 3.5 mph - N/A   Partly Cloudy
9:56 PM 73.9 °F - 62.1 °F 66% 29.99 in 10.0 mi WSW 5.8 mph - N/A   Partly Cloudy
10:56 PM 73.9 °F - 61.0 °F 64% 30.00 in 10.0 mi WSW 4.6 mph - N/A   Scattered Clouds
11:56 PM 72.0 °F - 62.1 °F 71% 30.01 in 10.0 mi WNW 3.5 mph - N/A   Clear